Home > Weather > Phnom Penh > Past weeks

Flag for Cambodia Past Weather in Phnom Penh, Cambodia — Yesterday and Last 2 Weeks

Now
79 °F

Passing clouds.


Feels Like: 82 °F
Forecast: 77 / 90 °F
Wind: 1 mph from North

Location: Phnom-Penh / Pochentong

Current Time: Jul 2, 2016 at 3:52:22 AM

Latest Report: Jul 2, 2016 at 2:30 AM


Visibility: N/A

Pressure: 29.77 "Hg

Humidity: 89%

Dew Point: 75 °F

Location of Phnom PenhLocation

Past Weather in Phnom Penh — Graph

°F

Phnom Penh Temperature Yesterday

Maximum temperature yesterday: 90 °F (at 11:30 AM)
Minimum temperature yesterday: 75 °F (at 1:30 AM)
Average temperature yesterday: 81 °F

High & Low Weather Summary for the Past Weeks

 TemperatureHumidityPressure
High95 °F (Jun 17, 2:30 PM)100% (Jun 17, 6:00 AM)29.83 "Hg (Jun 17, 6:00 AM)
Low73 °F (Jun 27, 3:00 PM)47% (Jun 26, 12:30 PM)29.62 "Hg (Jun 20, 2:30 PM)
Average83 °F78%29.74 "Hg
* Reported Jun 17 2:00 AM — Jul 2 2:30 AM, Phnom Penh, Weather by CustomWeather, © 2016

Note: Actual official high and low records may vary slightly from our data, if they occured in-between our weather recording intervals... More about our weather records

Advertising

Phnom Penh Weather History for the Previous 24 Hours

Scroll right to see more
 ConditionsComfort  
Time TempWeatherWind HumidityBarometerVisibility
2:30 AM
Sat, Jul 2
79 °FPassing clouds.1 mph89%29.77 "HgN/A
2:00 AM79 °FPassing clouds.2 mph89%29.74 "HgN/A
1:30 AM79 °FPassing clouds.1 mph89%29.77 "Hg6 mi
1:00 AM79 °FPassing clouds.3 mph89%29.77 "Hg6 mi
12:30 AM79 °FPassing clouds.3 mph89%29.77 "Hg6 mi
12:00 AM79 °FPassing clouds.3 mph89%29.77 "Hg6 mi
11:30 PM
Fri, Jul 1
79 °FPassing clouds.3 mph89%29.80 "Hg6 mi
11:00 PM79 °FPassing clouds.3 mph89%29.77 "Hg6 mi
10:30 PM79 °FPassing clouds.3 mph89%29.77 "Hg6 mi
10:00 PM79 °FPassing clouds.3 mph84%29.77 "Hg6 mi
9:30 PM79 °FPassing clouds.3 mph84%29.77 "Hg6 mi
9:00 PM81 °FPassing clouds.5 mph79%29.77 "Hg6 mi
8:30 PM81 °FPassing clouds.6 mph79%29.77 "Hg6 mi
8:00 PM81 °FPassing clouds.7 mph74%29.77 "Hg6 mi
7:30 PM81 °FPassing clouds.7 mph79%29.77 "Hg6 mi
7:00 PM81 °FPassing clouds.6 mph79%29.74 "Hg6 mi
6:30 PM81 °FPassing clouds.9 mph79%29.74 "Hg6 mi
6:00 PM81 °FScattered clouds.8 mph79%29.71 "HgN/A
5:30 PM81 °FScattered clouds.8 mph79%29.71 "HgN/A
5:00 PM79 °FScattered clouds.6 mph84%29.71 "HgN/A
4:30 PM79 °FScattered clouds.5 mph84%29.71 "HgN/A
4:00 PM81 °FScattered clouds.6 mph79%29.71 "HgN/A
3:30 PM79 °FBroken clouds.8 mph84%29.71 "HgN/A
3:00 PM77 °FBroken clouds.10 mph89%29.74 "HgN/A
2:30 PM79 °FRain. Broken clouds.16 mph84%29.77 "Hg6 mi
2:00 PM81 °FRain. Broken clouds.5 mph89%29.77 "Hg6 mi
1:00 PM77 °FThunderstorms. Broken clouds.13 mph94%29.77 "Hg4 mi
12:30 PM90 °FScattered clouds.8 mph67%29.77 "HgN/A
12:00 PM90 °FScattered clouds.6 mph67%29.77 "HgN/A
11:30 AM90 °FScattered clouds.2 mph67%29.80 "HgN/A
11:00 AM88 °FScattered clouds.5 mph70%29.80 "HgN/A
10:30 AM86 °FScattered clouds.6 mph75%29.80 "HgN/A
10:00 AM86 °FScattered clouds.1 mph75%29.80 "HgN/A
9:30 AM84 °FScattered clouds.1 mph74%29.83 "HgN/A
9:00 AM82 °FScattered clouds.3 mph79%29.83 "HgN/A
8:30 AM82 °FScattered clouds.1 mph79%29.80 "HgN/A
8:00 AM81 °FScattered clouds.No wind84%29.80 "HgN/A
7:30 AM81 °FScattered clouds.No wind84%29.80 "HgN/A
7:00 AM79 °FScattered clouds.1 mph89%29.77 "HgN/A
6:30 AM77 °FScattered clouds.1 mph100%29.77 "HgN/A
6:00 AM77 °FScattered clouds.1 mph94%29.77 "Hg5 mi
Weather by CustomWeather, © 2016

See weather overviewHow to use our weather pages